TimePDT,TemperatureF,Dew PointF,Humidity,Sea Level PressureIn,VisibilityMPH,Wind Direction,Wind SpeedMPH,Gust SpeedMPH,PrecipitationIn,Events,Conditions,WindDirDegrees,DateUTC
12:53 AM,54.0,43.0,66,29.91,10.0,ESE,4.6,-,N/A,,Clear,110,2013-04-04 07:53:00
1:53 AM,51.1,43.0,74,29.90,10.0,ESE,3.5,-,N/A,,Clear,110,2013-04-04 08:53:00
2:53 AM,51.1,42.1,71,29.88,10.0,SE,9.2,-,N/A,,Clear,140,2013-04-04 09:53:00
3:53 AM,46.0,42.1,86,29.88,10.0,SSW,5.8,-,N/A,,Clear,200,2013-04-04 10:53:00
4:53 AM,46.0,42.1,86,29.87,10.0,SSW,3.5,-,N/A,,Clear,210,2013-04-04 11:53:00
5:53 AM,48.9,43.0,80,29.79,10.0,ENE,13.8,-,N/A,,Overcast,70,2013-04-04 12:53:00
6:00 AM,50.0,42.8,76,29.79,10.0,NE,11.5,-,N/A,,Overcast,50,2013-04-04 13:00:00
6:53 AM,50.0,44.1,80,29.82,10.0,SSW,8.1,-,N/A,,Overcast,210,2013-04-04 13:53:00
7:53 AM,53.1,44.1,71,29.80,10.0,NW,6.9,-,N/A,,Overcast,320,2013-04-04 14:53:00
8:53 AM,53.1,44.1,71,29.79,10.0,WNW,4.6,-,N/A,,Overcast,300,2013-04-04 15:53:00
9:53 AM,55.9,44.1,64,29.78,10.0,SW,6.9,-,N/A,,Overcast,220,2013-04-04 16:53:00
10:53 AM,57.0,45.0,64,29.81,10.0,SW,4.6,-,N/A,,Overcast,230,2013-04-04 17:53:00
11:53 AM,57.9,46.9,67,29.80,10.0,Variable,3.5,-,0.00,Rain,Light Rain,0,2013-04-04 18:53:00
12:53 PM,57.9,46.9,67,29.79,10.0,NNW,4.6,-,0.00,Rain,Light Rain,340,2013-04-04 19:53:00
1:53 PM,57.0,48.0,72,29.76,10.0,NNE,5.8,-,0.01,Rain,Light Rain,30,2013-04-04 20:53:00
2:53 PM,57.9,50.0,75,29.74,10.0,East,10.4,-,0.00,,Mostly Cloudy,80,2013-04-04 21:53:00
3:53 PM,62.1,51.1,67,29.72,10.0,ENE,8.1,-,0.00,,Scattered Clouds,60,2013-04-04 22:53:00
4:53 PM,62.1,51.1,67,29.69,10.0,NE,13.8,-,0.00,,Overcast,40,2013-04-04 23:53:00
5:53 PM,59.0,51.1,75,29.68,10.0,North,8.1,-,N/A,,Mostly Cloudy,10,2013-04-05 00:53:00
6:14 PM,55.4,51.8,88,29.78,3.0,West,21.9,43.7,0.07,Rain,Rain,270,2013-04-05 01:14:00
6:53 PM,55.0,52.0,89,29.76,10.0,West,3.5,-,0.12,,Overcast,280,2013-04-05 01:53:00
7:53 PM,54.0,52.0,93,29.77,10.0,South,10.4,-,N/A,,Scattered Clouds,180,2013-04-05 02:53:00
8:53 PM,54.0,51.1,90,29.80,10.0,South,5.8,-,N/A,,Clear,180,2013-04-05 03:53:00
9:53 PM,51.1,48.9,92,29.81,10.0,SW,4.6,-,N/A,,Partly Cloudy,220,2013-04-05 04:53:00
10:53 PM,48.9,48.0,97,29.82,9.0,SSE,4.6,-,N/A,,Mostly Cloudy,160,2013-04-05 05:53:00
11:53 PM,52.0,46.9,83,29.83,10.0,South,8.1,-,N/A,,Mostly Cloudy,190,2013-04-05 06:53:00